Wind_Speed
5 5 4 2 2 1 2 5 2 2 3 2 1 2 3 2 2 2 2 2 1 2 3 1 4 6 3 3 6 6 4 4 5 4 3 3 8 24 20 19 26 23 22 19 18 17 16 15 14 13 12 9 9 11 11 12 12 14 16 16 16 16 15 15 15 15 15 14 13 12 13 12 12 12 12 11 11 11 11 13 15 16 16 16 17 16 16 16 16 16 17 18 18 18 19 19 19
4 4 3 1 3 2 1 3 3 3 5 1 3 3 3 2 1 5 6 6 4 3 3 4 5 5 4 4 5 4 1 1 4 3 1 3 13 21 16 20 25 24 24 21 19 17 16 15 13 12 10 10 10 11 12 12 13 14 15 15 16 16 15 15 15 15 14 14 13 12 12 10 10 13 12 12 11 11 11 12 14 16 16 16 17 16 15 16 15 16 16 18 18 18 19 19 19
4 3 2 2 3 4 1 3 2 1 4 2 4 3 1 1 5 6 7 7 5 3 4 4 4 4 4 5 3 2 1 1 3 1 1 9 13 16 16 20 24 24 24 23 21 18 17 16 14 13 12 12 11 12 13 13 13 13 14 15 16 15 15 15 14 14 14 14 12 12 12 11 11 12 12 12 12 11 11 11 14 16 16 16 16 15 15 15 15 15 16 17 18 18 18 18 18
4 3 2 2 2 3 4 4 2 4 3 4 3 4 3 5 7 6 6 6 4 3 1 2 2 1 3 3 0 1 1 2 3 3 3 10 12 16 18 20 23 23 23 23 22 20 18 18 17 15 14 13 12 13 13 12 13 13 14 15 15 15 15 15 14 14 14 14 12 11 12 13 12 11 11 13 13 12 12 13 15 16 16 16 15 15 14 15 15 15 15 16 17 17 18 18 18
4 5 3 3 2 1 3 3 2 4 4 5 2 5 5 6 6 5 5 4 5 3 3 2 2 1 2 3 1 1 2 1 4 4 5 11 13 18 18 21 24 22 23 22 22 21 19 19 18 16 14 13 12 13 13 12 12 13 13 15 16 15 15 14 14 13 13 14 12 11 11 12 11 11 12 12 12 12 14 15 16 16 16 15 14 14 14 14 15 15 15 16 16 17 17 17 16
4 7 7 6 3 1 3 2 2 2 5 5 3 5 5 6 6 5 3 2 4 4 4 1 2 3 2 1 0 2 1 1 5 4 8 12 13 19 19 22 23 21 22 21 21 21 19 19 17 15 13 13 12 13 14 12 12 12 12 14 16 16 15 14 14 13 13 13 12 11 10 10 10 10 12 12 11 12 15 16 16 16 15 15 14 14 14 15 15 15 15 15 15 14 14 14 15
4 4 5 6 2 2 3 3 4 3 3 4 3 4 5 6 5 5 3 1 2 2 2 1 3 6 2 1 1 1 2 3 4 2 9 13 15 19 20 22 21 20 20 20 21 19 19 18 17 14 12 12 12 13 13 12 11 12 12 13 16 16 15 14 14 13 13 13 11 11 10 10 10 11 12 12 12 13 15 16 15 15 15 14 14 14 14 15 15 14 14 14 13 13 13 14 15
5 2 1 4 2 4 4 2 4 3 1 3 3 4 5 6 5 6 5 3 2 2 1 1 1 5 0 1 2 2 3 3 2 3 11 13 17 20 19 22 20 19 19 20 20 18 18 17 16 14 12 12 11 13 12 12 11 12 12 12 15 15 15 14 13 13 13 12 10 11 11 10 10 11 12 12 13 12 13 15 15 15 14 14 14 14 14 14 14 13 13 13 13 13 14 15 15
6 3 0 3 2 3 3 1 1 2 2 4 3 4 3 6 6 5 5 2 2 1 1 2 0 2 1 2 1 3 3 1 3 8 12 14 19 19 20 21 20 19 19 19 19 18 18 17 17 14 12 12 11 12 12 12 11 11 12 12 13 14 14 14 13 13 13 12 10 11 10 10 11 11 12 11 11 10 11 14 15 14 14 13 13 13 13 13 13 13 13 13 13 14 14 15 17
5 4 1 2 2 2 2 0 1 2 3 4 3 4 2 5 5 3 4 2 1 2 1 2 2 3 3 2 1 2 3 2 7 12 12 16 19 18 20 19 18 19 19 20 18 17 17 18 17 14 13 11 11 12 12 12 11 11 11 11 12 13 13 14 14 14 13 11 10 11 10 10 10 11 11 10 10 9 10 14 15 14 13 12 13 13 13 12 12 13 13 12 12 13 14 15 16
3 4 3 4 3 2 2 3 3 3 4 4 2 4 4 5 5 2 1 1 1 3 2 1 3 4 3 1 2 0 1 4 12 14 13 17 18 18 19 18 18 17 19 20 18 18 18 18 17 15 13 12 11 11 11 11 11 10 10 11 12 12 12 13 15 14 13 12 10 10 10 9 9 10 10 10 9 8 10 14 15 14 13 12 12 12 12 12 12 12 12 12 11 12 13 14 14
2 3 4 4 2 2 3 3 3 4 6 4 0 3 3 5 4 3 3 3 1 2 3 2 3 5 4 2 2 1 1 9 13 14 14 18 18 17 18 17 18 16 17 19 18 18 18 18 17 15 13 12 11 10 10 10 11 10 10 10 11 11 11 12 14 15 15 14 12 10 11 9 9 10 9 9 8 7 9 14 15 14 13 12 12 11 12 12 12 12 12 12 11 11 13 14 13
3 1 5 3 2 2 3 3 2 3 5 3 2 2 4 5 2 6 5 3 2 3 3 4 5 5 3 2 2 3 3 12 14 14 16 18 17 17 18 17 17 16 17 18 18 18 19 19 16 16 14 13 12 10 10 10 11 10 9 9 10 10 10 11 12 14 16 16 13 11 11 10 9 9 9 8 8 9 9 13 16 14 13 11 11 11 11 12 12 12 11 11 11 11 12 13 12
3 3 5 2 1 2 3 2 1 2 2 5 2 1 3 2 3 6 6 4 3 4 2 3 6 4 2 2 3 4 5 14 16 16 17 18 17 17 17 17 17 17 17 17 18 18 20 19 17 17 15 14 13 11 10 10 11 10 9 9 9 10 10 11 11 13 15 15 14 13 13 12 11 10 9 9 8 9 7 12 17 13 12 11 10 11 12 12 12 11 11 11 11 12 12 12 11
4 3 5 4 2 1 3 1 2 5 4 4 2 4 4 1 3 4 5 5 4 4 0 1 3 2 3 3 2 5 10 17 18 18 19 19 18 17 17 18 18 18 18 18 18 19 20 20 19 18 16 15 14 12 12 11 11 10 10 9 9 9 9 10 10 12 13 13 14 13 13 12 12 11 11 11 9 8 6 11 17 14 11 11 10 11 12 12 11 11 11 11 12 12 12 11 11
3 4 5 3 2 1 3 2 3 3 5 4 1 4 5 3 3 4 4 4 2 1 2 2 1 0 4 6 2 5 14 19 19 21 20 19 18 18 17 18 19 19 19 19 18 19 20 20 20 19 17 16 15 14 13 12 12 11 11 9 9 8 9 9 9 10 10 11 12 12 13 12 12 11 11 11 9 8 6 11 17 14 12 11 9 10 11 12 11 11 11 11 11 12 12 12 12
3 4 4 2 3 3 4 4 4 4 5 5 2 4 8 3 1 2 2 5 3 1 3 3 2 1 4 4 1 5 19 21 21 22 21 19 18 17 17 17 18 18 19 20 20 20 20 21 21 20 19 17 16 15 14 14 13 12 12 10 10 9 9 9 9 9 9 9 10 10 11 11 11 11 11 11 9 9 7 10 17 14 12 11 10 11 12 12 12 10 10 10 11 12 12 13 13
4 4 4 2 4 4 6 7 7 5 4 6 4 5 8 4 3 2 1 5 3 2 5 4 4 4 3 3 1 11 22 23 23 24 21 20 19 18 18 18 19 19 19 20 21 21 22 22 22 21 20 19 17 16 16 15 15 14 13 12 11 11 10 9 9 9 9 9 9 9 9 9 10 10 10 10 9 8 7 10 16 15 12 11 11 13 13 12 12 10 11 11 11 12 12 13 14
4 3 3 3 6 5 5 7 6 3 3 6 4 3 5 5 4 3 1 1 3 1 4 5 6 6 3 2 7 19 24 24 25 24 22 21 21 21 20 20 21 22 22 23 23 23 23 23 23 22 22 20 19 18 17 16 17 16 15 14 13 13 12 11 10 10 10 9 9 9 9 9 9 9 10 10 9 8 7 9 13 15 13 11 12 15 14 13 12 11 11 11 11 12 12 13 14
2 4 3 5 6 4 4 6 6 3 3 8 5 2 2 3 3 2 3 2 0 4 5 1 5 9 4 1 12 21 22 23 24 23 22 21 22 23 24 24 25 26 26 25 24 24 24 25 24 24 23 22 21 20 19 18 18 18 17 16 15 15 13 12 11 11 10 10 10 10 9 9 9 10 10 11 10 10 9 8 11 13 13 12 13 16 16 14 13 12 12 11 11 11 11 12 13
2 4 4 5 3 1 3 5 6 4 4 7 6 4 2 3 2 2 6 5 3 7 8 8 9 9 5 4 11 19 20 21 21 21 21 21 22 23 25 26 27 27 26 24 25 25 25 26 26 25 24 23 22 22 21 20 20 20 20 18 17 17 15 14 13 12 12 11 11 10 10 10 10 10 11 11 12 11 10 9 10 13 14 13 14 16 16 15 13 12 12 12 12 11 11 11 12
2 1 4 5 2 1 1 2 3 3 4 6 7 6 4 3 2 3 9 7 6 7 7 9 9 8 9 10 12 16 17 18 19 20 20 21 22 23 24 25 24 23 24 24 26 27 26 26 26 26 26 25 24 23 22 22 22 22 22 21 20 18 17 16 15 14 14 13 12 11 11 11 11 11 11 12 12 12 12 11 10 12 14 14 15 16 16 15 14 13 13 13 12 11 11 11 11
2 1 1 3 3 1 2 3 2 2 6 7 7 4 3 4 1 2 7 8 8 5 5 6 6 5 8 13 14 13 13 16 19 23 24 24 26 26 26 25 24 24 24 25 26 27 27 27 27 27 27 27 26 25 24 23 23 24 24 23 22 20 19 18 17 16 16 15 14 13 12 12 12 12 12 12 13 13 12 12 11 11 13 14 15 17 17 16 15 14 14 13 13 12 11 11 11
4 1 1 2 3 1 3 2 1 2 5 5 4 3 3 5 4 2 5 11 7 3 3 4 6 8 9 11 12 13 15 19 22 27 28 28 29 28 26 25 24 24 24 26 27 27 28 29 28 27 28 28 27 26 26 25 25 25 25 25 24 22 21 20 20 18 17 17 16 15 14 13 13 13 13 13 13 14 13 13 12 12 13 14 15 18 17 16 16 15 14 14 13 13 12 11 11
4 3 2 3 2 2 3 2 4 3 3 1 3 4 1 4 4 2 8 11 7 4 2 3 7 9 9 10 11 12 13 18 21 24 26 26 24 22 23 24 24 24 26 28 28 28 29 29 29 28 29 29 28 28 27 27 26 26 26 26 26 25 23 22 21 20 20 19 18 17 16 15 15 14 14 14 14 14 14 14 13 13 13 14 16 18 18 17 17 16 15 15 14 14 13 12 11
2 4 2 3 2 5 3 3 5 4 1 2 4 2 4 2 1 3 8 7 5 2 5 5 6 7 8 9 10 11 11 15 19 21 23 23 20 21 23 24 24 27 30 29 29 29 30 30 30 30 30 29 29 28 29 29 28 28 28 27 27 27 26 24 23 22 22 21 21 19 18 17 16 15 15 15 15 15 15 15 15 14 14 15 16 18 19 18 17 17 16 16 15 15 14 13 12
3 6 5 5 2 5 4 3 5 4 1 3 4 2 4 2 2 4 5 5 3 2 6 4 6 7 9 7 8 11 12 16 20 19 19 18 20 24 26 26 28 31 31 31 31 30 29 30 31 30 30 30 29 29 29 29 29 29 29 28 28 28 27 26 25 24 24 24 23 21 20 19 18 17 16 16 16 16 16 16 16 16 15 15 16 18 20 19 17 17 16 16 16 15 15 14 13
5 7 6 7 5 4 6 5 5 4 2 3 5 3 4 3 1 7 5 6 2 5 4 3 6 6 6 6 6 8 11 15 16 15 17 21 26 29 29 31 33 32 33 34 33 31 30 30 31 31 31 30 30 30 30 30 30 30 30 29 29 28 28 28 27 27 26 25 24 23 22 21 20 19 18 17 17 17 17 17 17 17 17 17 17 18 20 20 19 17 17 16 16 16 15 15 14
4 5 5 6 8 5 5 3 4 3 2 3 2 1 5 3 5 9 5 6 3 5 4 3 5 5 4 5 5 6 9 12 12 17 23 27 30 30 32 35 34 33 35 34 31 31 32 31 31 31 31 31 31 31 31 31 31 30 30 30 30 29 29 28 29 28 27 25 25 25 24 23 22 21 20 19 19 18 18 18 18 18 18 18 18 18 20 22 20 19 18 17 16 16 16 15 15
2 4 5 2 6 4 4 3 4 1 1 5 1 1 7 7 9 8 5 5 3 1 4 5 5 5 5 5 5 6 9 11 14 22 26 27 28 28 32 34 32 32 33 31 31 32 32 32 31 31 31 32 32 32 32 31 31 30 30 30 31 30 30 29 29 29 28 26 25 25 26 25 23 22 22 21 20 20 19 19 19 19 19 19 19 19 20 22 22 21 20 19 18 17 17 16 16
2 3 3 2 2 4 6 3 1 2 1 5 5 2 7 8 8 7 5 4 1 4 6 5 5 5 5 5 5 7 9 13 18 22 25 26 27 28 31 32 31 33 33 32 33 33 32 32 32 31 31 32 33 33 33 32 31 31 30 30 31 31 31 31 30 30 30 28 27 26 27 27 25 24 24 23 23 22 21 21 20 20 20 20 21 21 20 21 22 22 21 20 19 18 18 17 17
3 2 1 2 4 4 7 2 0 3 1 5 6 2 7 7 9 6 5 4 3 6 7 6 6 6 6 5 6 7 8 13 18 22 26 27 28 30 32 33 32 33 34 35 34 32 32 33 32 32 32 32 33 33 33 32 32 31 31 30 30 31 31 32 32 31 31 30 30 28 28 28 28 26 25 25 25 24 23 22 21 20 21 22 22 22 22 22 23 23 22 21 21 20 19 19 19
4 2 2 1 3 2 4 1 2 1 0 4 2 3 4 4 6 6 4 5 4 3 7 7 7 7 6 5 6 6 7 10 14 22 28 30 31 33 34 35 35 34 34 35 34 33 34 33 33 34 34 34 33 33 33 33 32 31 31 30 29 30 31 32 32 32 31 31 31 31 30 29 29 29 28 28 28 27 25 23 22 21 21 23 24 24 24 24 24 24 23 23 22 22 21 21 20
2 3 2 2 3 3 2 2 3 3 1 1 2 2 6 6 7 8 5 1 2 5 7 7 6 6 6 6 6 6 7 8 10 19 28 31 33 35 35 36 35 35 34 34 34 35 35 34 34 35 35 34 33 33 33 33 32 31 31 32 31 31 31 32 32 32 32 32 32 32 32 32 30 29 29 30 31 31 29 26 25 23 22 22 24 26 26 26 25 25 24 24 23 23 23 22 22
5 3 3 2 2 3 3 3 2 4 2 2 1 3 9 11 10 10 6 2 2 7 7 7 7 7 7 6 6 7 7 9 13 20 25 26 29 32 34 35 35 34 34 34 34 33 34 34 34 34 35 34 34 33 32 32 32 32 31 31 32 32 32 32 32 32 32 32 33 32 31 31 32 31 30 31 31 32 32 31 28 26 26 25 26 27 28 28 28 27 27 26 25 25 25 24 23
9 6 5 5 3 4 5 4 4 1 3 3 4 5 8 10 10 11 7 2 1 7 6 6 7 7 7 6 6 7 8 11 15 20 21 21 23 25 27 30 32 33 33 33 32 32 33 33 33 34 35 35 34 32 31 31 31 32 32 30 31 33 33 33 33 33 32 32 32 33 31 30 31 31 32 32 30 30 32 33 30 30 31 30 30 31 32 32 31 31 30 30 29 28 26 25 24
7 6 5 4 4 2 3 3 5 1 3 3 4 4 8 10 11 12 9 4 4 9 8 8 8 7 7 7 8 8 9 11 11 15 17 18 20 21 22 24 25 27 30 31 32 33 34 34 34 35 35 34 33 32 32 32 32 32 32 33 33 32 32 32 33 34 34 33 31 33 35 34 33 31 31 32 31 30 32 34 33 33 34 33 32 33 34 34 34 33 33 32 31 30 29 27 26
6 6 5 2 2 2 2 1 4 3 1 3 2 4 9 10 11 12 8 6 7 9 8 9 9 8 7 7 10 10 8 9 9 12 16 16 18 19 20 21 22 25 28 31 33 34 34 33 34 35 34 34 35 35 34 34 35 34 34 35 35 33 33 32 33 33 32 33 32 34 36 36 36 33 32 34 35 34 34 34 34 34 34 34 33 34 34 34 34 34 34 33 31 30 28 28 29
5 4 5 3 2 2 3 2 4 5 0 3 4 5 9 11 10 11 9 7 8 8 8 8 8 9 9 8 9 9 9 10 9 10 12 14 16 17 18 20 22 25 27 28 30 32 32 32 33 34 34 34 35 35 35 35 36 35 34 33 32 32 33 33 33 33 32 31 32 32 33 33 35 35 33 34 35 35 32 30 32 34 35 35 34 34 34 34 34 34 34 34 31 28 25 26 30
5 4 5 3 2 1 1 2 4 4 2 1 3 4 7 8 7 9 7 5 7 7 7 8 8 9 11 9 7 7 9 11 9 9 9 11 13 14 16 19 20 22 24 25 27 29 30 32 34 34 34 34 34 34 36 36 34 32 32 31 30 29 29 29 30 31 32 32 32 32 32 33 33 34 34 34 35 35 32 31 34 35 34 34 35 35 34 34 35 34 34 35 33 29 26 26 30
2 3 5 4 3 4 3 1 2 3 3 2 3 4 6 5 5 7 5 4 6 6 6 8 7 7 9 8 8 8 9 9 9 10 9 10 12 14 14 15 16 18 22 24 25 27 28 31 31 31 32 32 32 33 33 34 32 30 28 28 26 25 26 26 26 28 30 31 33 33 34 33 31 31 32 33 35 36 34 35 37 36 33 32 36 38 37 36 37 38 38 39 38 35 32 31 32
1 3 6 6 7 6 2 2 4 4 4 4 4 3 5 6 5 7 5 7 8 6 6 8 7 6 6 7 8 7 7 7 7 9 9 10 14 16 15 13 13 16 18 20 21 23 25 26 27 27 29 30 30 30 30 31 32 30 28 27 26 25 25 26 28 30 31 32 34 35 35 34 34 32 31 31 33 34 36 38 39 36 33 33 37 39 38 38 39 41 41 41 42 41 36 32 32
2 4 5 7 8 8 6 5 4 2 1 2 3 3 4 7 6 7 5 8 11 8 6 7 7 7 6 5 7 6 6 6 5 7 7 9 12 13 12 9 9 12 13 14 16 18 20 22 23 24 25 27 27 27 27 29 30 31 30 30 30 29 29 30 32 33 33 33 34 34 34 35 35 36 35 34 33 33 35 38 39 37 36 36 37 38 38 38 39 41 42 42 42 42 38 33 33
3 3 6 8 8 8 7 6 4 2 2 3 4 4 1 5 6 7 6 7 10 9 8 8 7 7 7 6 6 6 6 5 5 6 6 7 8 8 8 6 4 6 6 7 10 12 14 17 19 20 21 22 24 24 25 26 28 30 31 32 32 32 32 32 32 31 32 32 32 32 32 33 34 35 36 36 36 35 35 35 37 37 38 36 34 36 38 38 39 39 39 40 41 40 40 39 35
3 2 7 7 7 7 5 6 4 0 0 3 5 2 1 5 7 6 6 5 9 8 7 8 7 7 7 7 7 7 6 5 4 4 5 7 8 8 7 6 5 4 3 2 4 6 8 11 14 16 17 18 20 21 23 24 26 28 29 31 32 33 33 33 30 28 28 28 29 31 30 31 32 33 34 35 35 36 36 36 34 34 35 34 33 36 38 37 38 39 39 40 41 42 43 42 39
4 6 8 6 6 6 5 5 4 2 2 4 5 2 1 5 7 4 3 2 7 7 6 6 6 6 6 6 7 7 6 6 4 4 6 7 8 10 10 8 7 6 5 3 1 1 3 6 10 12 14 15 16 18 20 22 23 25 28 30 31 32 32 31 30 28 26 25 26 28 28 29 30 31 32 33 34 35 36 35 32 32 32 32 33 35 36 37 39 41 42 44 44 44 44 43 42
7 6 7 7 6 5 4 3 3 4 2 6 5 3 1 3 6 4 2 3 5 3 3 5 6 6 6 5 6 6 6 6 5 5 6 6 7 8 9 9 8 8 7 5 4 2 0 2 5 8 10 11 13 15 17 19 21 24 26 28 31 32 31 30 29 28 27 26 27 28 28 28 29 29 30 31 32 33 34 35 35 35 34 33 34 34 36 40 42 43 42 42 42 42 42 41 40
6 5 6 5 4 4 4 5 3 2 4 6 4 3 1 2 5 3 3 6 5 3 2 4 6 7 7 6 6 6 5 5 5 5 5 6 7 8 9 9 9 9 8 7 6 4 3 1 1 3 6 8 10 12 14 17 19 22 25 27 30 31 30 29 29 29 29 28 29 29 29 28 28 29 29 29 30 31 32 34 35 36 36 36 37 37 39 39 36 35 36 36 38 40 40 39 37
5 5 6 5 2 3 2 3 1 2 5 4 3 2 2 5 7 6 8 9 6 6 6 5 6 7 8 7 7 6 5 5 5 5 5 5 6 8 9 9 9 9 8 8 6 5 3 2 1 2 4 5 8 11 13 15 18 20 23 26 28 29 30 30 30 31 31 30 31 31 30 30 30 30 30 30 31 30 31 32 33 34 35 35 36 35 36 35 32 31 32 34 36 38 39 40 40
4 6 5 4 3 2 2 4 2 3 4 3 4 2 1 4 6 8 11 10 6 6 6 6 6 6 7 8 7 7 6 5 4 5 5 5 7 9 11 12 13 12 11 9 7 6 5 3 2 3 3 5 7 10 12 14 16 18 20 23 25 27 28 29 30 31 32 32 31 31 31 31 31 31 31 31 31 30 30 31 31 33 33 34 35 35 34 33 33 33 33 33 35 37 38 39 41
3 4 5 5 5 4 4 4 3 4 3 3 4 2 3 3 3 6 8 7 5 5 6 5 6 6 6 7 6 6 5 5 4 5 5 6 9 12 15 17 18 18 17 14 12 10 8 7 6 6 6 5 7 9 11 13 15 16 18 21 22 24 26 27 29 31 31 31 31 31 31 31 31 31 31 30 29 29 29 29 29 31 31 33 34 36 37 36 34 32 31 31 31 32 33 35 38
1 2 5 3 4 5 3 3 5 3 0 2 2 3 4 3 5 6 3 5 5 4 4 3 4 6 4 4 4 4 5 5 5 6 7 8 11 15 17 20 20 19 19 17 16 14 13 12 11 11 11 9 9 10 11 13 14 15 17 19 20 22 23 25 27 29 29 29 29 30 31 31 31 30 30 29 28 28 28 28 29 29 29 30 31 33 35 36 37 37 36 35 34 33 31 32 34
2 2 3 4 4 8 6 1 1 3 1 3 1 3 5 4 6 7 4 4 6 6 5 3 3 5 4 3 3 4 5 6 6 5 5 7 11 15 17 19 19 18 17 16 15 14 13 13 13 13 13 13 12 12 13 14 15 16 17 19 20 21 23 24 26 26 26 27 28 29 29 29 30 29 29 28 28 28 28 28 28 28 28 28 29 30 31 32 33 36 37 38 38 37 33 32 32
5 3 5 4 3 5 5 2 3 4 2 4 1 3 5 1 3 6 6 2 5 5 5 5 3 2 4 3 2 2 3 4 5 5 5 6 10 14 16 17 16 15 15 14 13 13 12 12 13 14 15 15 15 14 15 15 16 17 18 19 20 21 22 23 24 24 24 25 27 27 28 28 29 28 28 28 28 27 27 27 28 28 28 28 29 29 29 30 30 32 34 36 36 35 34 34 33
4 4 3 4 3 2 2 2 1 1 2 4 4 3 3 3 4 5 3 5 6 6 6 4 1 3 3 2 2 1 1 3 5 5 5 7 10 13 15 16 15 15 14 14 13 12 11 12 13 14 15 17 17 18 18 17 17 18 18 19 20 21 22 22 22 23 23 25 26 26 26 27 27 27 28 27 27 27 27 27 27 28 28 28 28 28 28 28 29 31 32 33 33 31 31 32 32
4 3 2 3 3 4 2 3 4 3 3 2 4 3 3 6 6 5 7 7 6 6 5 3 4 5 5 6 5 3 2 4 5 6 5 6 9 12 13 15 15 16 16 14 13 12 12 13 15 16 17 18 20 21 20 20 19 18 18 18 19 20 21 22 22 22 23 25 25 25 25 26 26 27 27 27 27 27 27 27 27 27 28 28 28 28 28 28 29 31 32 31 31 30 31 33 32
3 3 3 2 2 2 1 1 2 4 4 3 2 3 5 6 4 6 8 7 6 7 7 6 6 7 7 7 6 4 2 3 4 5 4 6 9 13 15 16 16 17 18 16 14 13 13 15 16 17 17 19 21 21 21 21 21 20 20 18 17 18 19 20 22 22 24 25 25 26 25 25 25 26 26 26 26 26 26 26 26 27 27 28 28 27 27 28 29 31 31 31 31 31 33 34 33
6 5 6 6 4 4 3 2 1 3 3 4 3 3 7 6 3 5 6 6 6 6 7 8 6 7 8 6 5 4 1 2 4 4 5 6 10 15 17 18 18 19 20 18 16 15 15 15 16 15 16 18 19 20 20 20 21 21 21 20 18 18 17 19 20 22 24 25 25 26 26 26 27 27 27 27 27 26 26 26 26 27 27 28 28 28 28 28 29 31 31 31 31 32 33 34 33
Wind_Direction
343 355 358 354 1 130 28 55 98 324 78 83 301 186 241 203 172 170 177 197 184 247 206 152 142 140 115 144 172 175 154 159 165 130 195 261 146 156 152 149 156 155 155 155 156 149 146 150 147 141 134 130 126 125 121 112 106 102 105 109 110 107 106 105 106 107 107 107 102 103 105 105 102 101 99 97 94 89 88 92 100 101 99 97 95 93 91 92 93 92 90 90 90 90 91 93 95
1 358 4 64 30 61 237 67 100 332 58 101 265 179 255 322 154 196 189 197 217 211 162 133 116 100 65 87 121 122 102 213 170 159 234 131 143 158 152 153 158 155 155 155 155 150 148 150 150 145 138 141 134 128 118 108 103 98 101 106 112 111 109 107 108 110 109 108 105 108 109 109 107 104 97 94 92 89 89 91 103 105 101 99 97 95 93 93 94 93 90 91 92 93 93 94 96
22 12 32 119 33 42 69 44 86 55 86 183 260 241 247 151 203 217 205 218 221 147 129 144 100 77 46 43 69 103 173 315 165 192 82 141 151 161 157 158 160 157 156 155 155 153 152 151 149 148 148 151 139 126 113 103 99 99 103 106 113 112 110 111 110 111 111 109 107 108 109 109 106 102 93 89 87 87 90 94 107 108 103 101 99 96 93 92 95 94 89 91 94 94 95 96 97
43 44 62 136 52 33 60 43 119 122 143 201 258 259 207 186 210 226 232 237 209 121 105 181 65 17 51 67 100 74 200 311 168 166 138 160 165 162 159 161 163 160 158 158 158 156 156 155 154 156 157 152 137 124 110 102 98 97 105 112 116 114 113 113 112 113 112 112 109 103 102 106 105 100 92 90 90 89 92 101 109 108 104 102 100 97 94 93 95 96 92 92 96 97 96 97 98
62 64 68 103 86 48 91 73 104 119 195 185 186 257 227 203 197 210 250 245 215 227 242 168 83 283 54 111 159 111 210 316 152 164 165 172 170 162 160 163 165 163 160 160 159 158 159 160 159 160 160 150 137 124 112 104 99 98 105 114 118 117 117 116 115 116 115 116 114 107 101 101 100 97 93 92 95 97 100 104 107 107 105 102 100 98 95 96 97 97 94 94 96 97 98 101 103
90 80 60 71 87 121 118 114 147 184 220 166 157 248 230 207 185 186 238 271 245 245 234 195 126 149 68 20 272 165 201 83 148 184 182 175 173 165 163 165 167 165 163 162 161 160 161 163 161 160 160 149 139 126 117 111 104 102 106 114 119 120 121 119 118 119 118 118 118 115 111 104 99 98 95 97 100 100 103 105 107 107 106 102 99 97 98 99 100 100 98 97 96 98 102 105 107
108 97 42 67 64 31 108 164 195 208 222 168 173 224 212 199 174 156 177 221 246 258 249 272 136 114 88 315 56 200 14 115 156 200 185 173 170 168 166 168 170 168 164 165 165 163 164 165 162 163 162 152 143 130 120 116 111 107 109 114 119 121 123 122 121 123 122 120 119 112 112 109 103 102 100 107 109 103 103 107 109 108 107 103 100 99 102 102 101 101 100 97 97 104 107 106 109
86 107 5 91 63 27 91 141 201 196 198 238 233 225 204 178 151 145 178 194 202 247 2 298 84 89 136 31 116 251 14 132 175 171 180 171 169 169 169 172 173 170 166 168 168 169 168 166 165 167 166 158 148 134 124 121 117 110 111 114 117 121 124 125 125 128 125 121 118 111 115 114 107 108 107 112 113 104 101 107 111 110 109 104 101 102 104 105 104 101 99 100 101 107 110 112 117
62 50 34 89 97 41 45 55 222 231 265 278 273 248 199 147 133 141 185 236 235 182 90 234 321 90 182 57 106 275 15 147 176 164 178 175 170 169 172 176 178 173 168 170 172 174 172 169 168 170 170 163 154 141 132 127 121 115 113 114 117 121 127 130 128 130 129 121 119 118 119 116 115 117 114 114 111 103 98 108 114 113 113 106 102 103 106 107 106 104 103 104 104 107 114 119 122
46 28 125 76 93 60 7 314 244 254 267 274 264 244 177 136 129 140 178 210 247 127 182 267 44 91 141 105 253 318 25 175 159 163 180 177 172 171 175 179 183 177 170 172 176 178 174 172 173 174 175 166 160 150 140 135 129 124 118 118 119 121 128 133 133 133 130 123 124 125 120 120 127 125 119 115 108 103 100 111 117 116 118 108 102 103 107 110 110 110 108 109 108 111 117 120 123
37 357 98 74 75 111 198 209 268 276 286 300 290 249 184 136 119 124 133 154 282 108 176 276 82 122 99 355 242 36 51 171 164 168 177 177 176 174 177 181 185 182 174 174 177 180 175 175 178 178 180 172 167 159 150 143 136 133 126 123 122 123 126 132 137 137 134 126 127 129 125 126 128 122 118 114 112 110 104 113 119 121 121 108 104 105 108 112 114 115 113 113 114 115 117 121 124
84 343 66 84 136 187 199 175 286 300 317 330 4 280 161 120 114 192 167 153 168 114 204 218 155 136 82 327 248 329 139 169 174 173 175 178 179 178 180 183 186 185 178 176 178 181 177 179 181 181 184 178 174 169 163 151 143 140 133 129 126 128 126 131 138 141 142 131 129 135 133 134 129 124 122 120 122 119 109 118 124 125 123 112 110 109 110 116 116 117 117 117 118 121 121 123 127
115 126 91 98 161 159 159 145 289 333 336 284 205 288 128 122 203 205 164 135 127 135 238 216 164 110 108 251 280 320 193 176 177 175 179 179 181 182 185 187 188 188 182 180 181 182 182 183 183 184 188 184 180 179 176 163 153 149 143 140 133 134 132 134 139 144 147 137 137 144 142 142 140 137 133 132 132 124 115 123 127 129 130 121 117 116 118 124 123 122 125 126 127 127 125 129 134
133 146 112 116 74 108 147 135 268 128 265 262 214 189 143 149 214 190 148 128 200 185 258 208 160 111 136 240 308 297 193 178 177 177 181 179 184 185 188 191 192 191 185 186 186 185 186 187 186 187 192 188 187 188 187 179 164 158 155 152 144 142 139 140 142 147 152 147 148 152 151 151 147 144 142 143 143 135 125 128 130 133 135 128 126 124 124 132 133 132 132 132 131 129 130 135 139
132 130 90 105 58 68 162 146 137 138 231 239 147 157 156 239 151 161 172 152 223 230 13 199 166 162 182 155 242 248 178 175 177 176 178 179 186 187 192 195 195 194 190 191 190 190 190 190 189 189 196 193 192 193 194 191 176 168 165 163 157 150 146 146 148 151 157 157 156 157 160 162 156 151 151 152 154 152 146 138 135 134 142 144 139 131 133 141 142 139 135 132 131 132 136 139 141
117 112 71 88 115 173 172 154 117 119 248 223 164 142 146 252 142 156 227 148 183 303 33 227 214 14 172 150 221 222 168 171 175 173 176 178 184 188 195 197 196 197 194 197 196 195 194 193 192 192 198 198 197 197 198 200 188 179 173 172 170 160 156 154 154 156 160 163 163 164 167 171 167 161 164 166 170 168 161 146 139 141 158 161 150 141 144 148 146 144 142 139 137 137 139 140 142
74 84 70 83 154 197 181 170 166 159 238 232 258 165 150 250 255 178 238 88 121 2 347 263 261 283 176 172 327 163 162 168 171 170 172 175 181 184 192 197 196 197 198 201 200 199 198 197 197 195 199 202 201 200 201 204 199 190 182 180 178 172 168 164 163 162 164 168 170 172 174 177 176 172 174 178 182 179 169 150 144 152 172 169 158 154 153 154 156 158 155 150 144 142 142 143 145
57 79 100 144 173 202 185 177 191 167 192 203 209 178 157 198 215 179 69 50 51 1 322 312 299 275 217 258 298 151 160 165 168 168 170 174 180 181 187 196 196 198 201 203 204 203 202 202 202 200 201 204 204 204 204 205 204 199 190 188 187 184 181 176 174 172 172 174 175 179 181 184 184 182 184 186 189 185 177 157 152 164 179 175 166 162 161 163 166 166 161 156 151 149 147 147 148
84 109 110 212 196 205 195 173 184 169 167 173 174 181 171 191 176 139 182 317 32 115 288 336 317 280 288 305 157 155 160 163 168 171 173 178 182 184 187 194 198 201 202 205 206 205 205 205 207 205 204 205 206 207 208 208 207 205 199 195 195 193 190 187 185 183 182 181 182 184 186 189 191 192 193 195 197 195 189 168 164 174 181 177 171 167 169 171 172 170 164 162 159 158 157 155 155
144 118 109 240 211 216 223 179 188 207 162 147 155 182 192 217 165 139 181 176 120 206 228 277 276 258 265 252 153 156 160 163 171 175 179 184 188 190 190 194 200 202 204 207 208 207 208 208 209 208 207 208 209 209 209 211 211 210 207 202 201 200 197 195 194 193 192 190 190 189 190 193 195 197 198 200 203 202 200 182 174 181 185 181 178 175 176 179 179 175 170 168 167 166 166 165 166
142 121 170 231 200 185 218 192 207 210 163 146 145 139 169 227 170 142 146 138 265 247 221 201 214 219 197 184 162 159 161 165 175 180 184 189 192 197 198 200 204 205 206 207 209 210 210 211 211 210 211 211 211 211 210 212 213 212 212 210 206 206 204 201 200 200 200 199 198 196 197 198 200 202 202 203 205 206 205 197 183 185 190 189 186 183 182 185 185 182 177 175 175 175 175 174 176
105 148 190 201 151 97 282 222 217 170 136 125 131 150 175 171 128 147 151 164 237 237 227 214 212 200 170 168 169 163 164 169 178 186 190 193 195 200 203 205 207 208 208 210 212 212 212 213 214 212 213 214 214 215 213 213 214 213 214 215 212 209 209 207 205 204 206 206 205 204 203 203 204 206 208 207 207 209 208 205 195 190 195 195 192 189 187 190 191 189 185 182 182 183 183 179 179
123 256 230 192 180 92 337 306 263 145 128 140 156 176 144 123 164 177 170 203 220 209 243 236 214 196 167 157 161 167 172 177 185 192 194 196 199 201 203 205 206 208 210 213 216 215 214 214 216 215 215 216 215 217 218 215 215 215 215 218 219 214 211 212 211 209 210 211 211 211 211 210 210 210 213 213 212 212 211 210 206 199 199 199 197 195 193 194 196 195 191 190 188 187 187 183 182
99 165 277 166 159 106 319 311 305 136 147 180 179 127 112 161 182 100 210 233 231 229 285 237 173 155 157 157 167 179 180 185 192 196 198 200 203 204 206 207 209 210 212 216 218 218 217 217 217 217 217 218 217 216 219 219 216 216 216 217 221 222 218 216 217 216 215 216 217 217 217 217 217 216 217 218 217 216 215 214 212 208 204 204 202 199 199 198 198 198 196 194 192 190 190 187 187
87 162 208 121 109 320 316 34 63 84 128 155 107 99 278 212 160 122 241 248 265 287 23 102 137 141 162 173 182 186 186 194 197 200 203 206 208 210 212 213 212 213 216 218 219 220 220 219 218 218 218 219 219 216 218 221 219 217 217 217 220 225 225 222 220 220 220 220 220 221 221 221 221 222 222 221 221 220 218 217 217 215 212 209 206 204 204 204 201 200 200 198 196 195 195 194 194
170 139 143 99 37 327 344 70 41 39 64 47 106 67 322 240 171 265 249 260 295 331 80 103 133 151 181 186 189 190 192 200 201 203 207 209 211 214 218 217 216 217 220 220 220 221 222 221 220 220 221 220 221 218 217 222 222 220 219 219 220 225 229 229 225 223 224 224 223 223 224 225 225 226 226 225 224 223 221 220 220 219 217 213 211 209 208 209 208 205 204 204 203 202 202 202 202
143 110 97 73 24 333 15 70 13 5 48 35 140 165 313 299 319 263 264 314 309 96 93 126 155 177 195 193 199 198 201 205 203 203 206 210 212 217 219 218 220 222 223 223 222 222 222 223 222 222 223 222 222 220 218 221 224 224 224 222 222 225 229 232 230 227 226 226 226 225 226 228 229 229 230 229 228 227 225 225 224 223 222 218 216 216 213 212 213 213 211 210 211 209 208 207 207
118 120 91 14 2 8 24 55 4 355 81 39 126 152 311 349 295 233 260 332 312 136 116 157 178 207 212 207 217 209 216 215 207 204 206 210 213 217 218 218 221 222 224 226 225 223 223 224 224 224 225 225 223 221 220 221 224 227 227 226 225 226 227 230 233 232 229 228 228 228 229 230 230 231 232 232 232 231 231 229 228 227 226 223 220 219 218 216 216 217 217 215 216 215 213 211 208
119 113 99 350 1 20 3 21 335 345 91 349 93 120 299 252 234 242 266 342 16 123 145 204 210 235 241 236 242 228 231 224 213 215 215 215 216 217 220 222 221 222 226 227 227 227 227 227 226 226 226 226 226 224 223 223 225 227 229 231 229 229 228 228 232 235 235 233 231 230 231 232 233 234 234 235 235 234 235 234 232 231 230 229 225 222 220 220 219 219 220 219 218 218 217 215 211
129 70 100 41 14 355 332 354 324 15 51 330 60 233 281 253 252 262 290 336 11 127 217 232 231 246 252 251 249 244 241 226 219 223 223 223 222 222 225 227 225 226 229 228 229 230 230 230 229 227 226 227 228 227 227 226 226 226 229 233 234 234 232 231 232 235 238 238 237 235 233 233 235 238 238 237 236 236 236 236 237 236 233 231 229 227 224 222 221 222 223 222 221 221 221 220 217
99 68 73 71 122 257 307 337 351 127 315 354 94 189 272 265 270 281 311 324 236 248 266 256 248 247 245 248 245 250 246 233 232 232 231 230 229 228 230 231 229 229 230 230 231 231 232 233 231 229 228 227 228 229 229 228 228 228 229 232 234 236 236 237 236 236 238 239 239 240 239 237 236 239 241 240 238 238 238 237 237 238 238 235 233 231 227 225 224 224 226 225 223 223 223 222 222
41 106 321 355 160 249 313 335 130 162 272 23 94 210 272 268 270 280 339 19 168 235 274 278 269 260 246 245 241 247 254 248 247 244 240 237 234 233 234 234 233 231 232 232 233 233 233 234 233 231 229 227 227 229 230 230 231 231 231 232 234 236 237 238 239 238 239 239 238 238 240 240 238 238 241 241 240 238 241 243 241 240 239 237 234 233 230 228 226 225 226 228 227 225 224 224 224
358 104 179 242 162 246 316 348 317 261 237 6 73 219 270 282 271 277 337 44 72 259 277 278 268 265 252 240 237 241 256 258 253 248 244 241 238 237 236 236 236 235 234 234 233 233 233 233 233 233 231 229 227 228 229 230 231 232 233 235 236 237 238 238 239 239 240 240 239 238 238 238 238 238 239 241 241 238 239 243 245 245 245 243 238 234 232 230 228 226 226 227 230 231 229 228 226
296 48 118 215 178 189 278 278 314 12 101 272 8 241 251 271 279 285 294 24 8 293 278 277 266 265 257 244 243 240 245 251 248 245 243 242 241 240 239 240 240 239 238 237 236 235 235 234 233 234 234 231 228 227 228 229 230 231 234 237 239 239 240 240 239 239 240 240 241 242 240 237 237 238 241 241 241 239 238 237 238 238 240 244 242 237 233 231 229 228 227 227 229 232 232 232 231
185 171 145 200 210 195 236 240 262 16 58 218 334 277 264 276 284 288 276 181 251 270 270 279 275 269 264 256 249 245 245 248 247 245 245 244 244 244 244 243 243 242 241 240 238 237 236 235 234 235 234 232 230 228 227 228 228 230 232 235 237 239 240 242 241 240 240 240 241 243 242 239 236 236 240 242 242 243 241 239 240 239 237 237 239 237 233 230 229 229 229 229 229 232 235 234 233
168 174 146 153 177 219 238 245 267 21 102 235 244 247 272 282 287 289 282 124 251 276 277 275 268 264 265 260 251 250 248 248 251 252 252 250 250 251 251 249 248 246 245 243 240 238 236 235 233 233 234 233 229 226 225 225 224 226 229 230 231 233 235 238 241 243 242 241 241 241 244 247 244 238 236 236 238 243 245 243 243 242 238 233 231 231 230 229 229 228 228 227 226 225 227 229 230
137 129 107 137 160 224 246 262 306 10 132 250 252 260 276 275 278 279 282 340 319 281 278 271 265 259 256 255 256 252 245 253 265 266 262 257 256 256 255 254 252 249 247 244 241 239 238 235 232 232 233 230 226 223 222 221 221 221 223 226 229 230 231 232 235 238 240 242 244 246 246 247 248 246 243 240 238 241 243 241 239 239 238 234 231 231 230 230 228 227 225 224 223 220 219 223 224
99 130 126 123 171 212 253 240 319 352 143 259 344 321 278 267 273 272 278 305 281 258 256 261 263 262 259 255 258 256 257 271 279 274 269 264 262 260 256 253 248 246 247 244 242 241 239 234 232 233 233 228 226 225 221 221 222 221 222 225 229 231 233 234 234 235 236 238 243 246 242 239 239 241 245 244 241 238 236 237 239 241 243 242 241 239 235 231 228 226 223 220 220 221 221 221 218
88 114 130 148 205 232 285 299 338 6 68 264 343 337 282 268 270 270 267 263 259 254 245 248 258 264 262 252 256 267 275 281 278 274 274 271 268 263 258 253 247 246 247 245 243 242 238 234 234 234 232 229 229 227 224 225 226 225 225 227 229 231 234 237 239 241 242 242 242 242 242 241 238 238 243 242 240 238 237 242 245 242 241 240 240 239 233 228 226 224 222 221 220 220 224 223 218
92 109 131 167 236 155 213 287 339 8 67 258 311 311 286 284 291 283 270 258 273 280 265 256 246 246 257 261 265 269 269 275 283 287 288 287 283 272 260 254 249 247 245 243 242 240 237 236 236 233 231 231 230 228 228 229 229 227 228 231 233 234 237 239 240 242 243 244 244 243 243 244 241 238 239 240 239 238 240 250 252 245 242 242 241 238 232 230 229 229 228 226 221 217 220 224 223
70 139 137 158 192 171 189 257 354 0 23 32 7 326 296 312 326 295 302 334 302 304 312 288 261 248 263 278 274 259 256 268 280 286 293 302 298 289 278 265 256 250 246 245 242 240 239 238 237 234 232 231 231 231 230 229 227 227 227 229 232 234 237 237 237 238 238 240 243 244 243 243 241 238 236 236 236 237 242 249 246 239 240 246 247 243 240 240 238 237 234 228 223 220 219 223 224
301 208 174 169 166 155 132 67 62 35 1 358 25 4 293 315 319 273 304 344 311 311 322 296 290 294 284 279 278 271 265 263 264 275 290 301 300 296 292 280 265 259 255 252 247 243 242 241 239 237 234 233 233 233 231 228 226 225 224 223 225 228 231 233 233 235 237 239 241 243 243 243 243 242 242 241 239 240 245 247 242 237 240 246 244 240 239 240 239 239 234 227 224 224 221 221 223
191 229 171 142 126 123 123 109 90 98 247 326 44 122 259 314 310 273 312 335 306 309 317 303 308 315 311 296 292 293 286 280 279 285 290 294 297 298 299 295 277 272 269 261 254 249 244 242 241 239 237 236 235 234 232 229 227 226 225 225 227 227 230 235 237 239 241 243 245 245 245 245 244 244 246 246 246 245 244 241 237 237 243 246 241 237 237 238 239 238 234 229 228 227 223 221 225
197 228 121 119 120 129 137 113 99 193 228 328 11 105 209 299 280 276 330 334 305 313 319 316 323 323 328 325 315 312 300 295 294 297 303 304 310 316 319 328 314 296 284 261 257 256 250 245 242 240 240 238 237 235 234 231 230 229 229 229 231 232 234 239 242 244 245 246 248 248 248 248 247 246 246 246 247 248 247 244 239 237 240 242 242 243 244 243 243 240 235 232 231 228 225 224 226
230 187 111 115 120 124 122 97 93 293 325 305 318 47 161 269 276 304 352 327 294 304 305 308 323 328 334 340 339 342 332 315 287 281 300 314 337 356 3 16 19 7 5 282 262 262 253 246 242 240 240 239 238 237 236 235 234 233 233 233 234 236 239 243 245 247 248 247 248 248 248 248 247 246 245 245 244 244 245 246 245 241 238 238 243 248 250 249 248 244 240 238 235 231 228 227 227
181 138 96 79 76 80 79 87 102 51 38 240 267 359 133 266 285 312 0 293 267 279 282 285 301 312 322 339 346 349 348 345 326 293 297 319 357 20 31 42 44 41 44 50 47 277 251 243 241 240 241 241 240 239 238 238 237 236 236 237 238 241 243 244 245 246 247 247 247 247 246 246 246 246 245 244 244 243 242 243 245 244 243 242 244 247 251 254 253 248 243 239 236 232 230 228 228
137 111 75 61 38 34 48 55 83 64 329 251 259 316 65 269 284 269 213 221 229 248 303 303 312 325 329 339 346 343 341 338 328 316 320 349 24 39 44 50 51 52 56 59 60 59 68 238 241 242 244 243 242 243 242 243 242 241 241 242 244 246 246 246 246 246 247 247 248 248 248 248 248 248 247 247 246 245 245 246 248 249 250 250 250 252 256 256 251 244 240 237 235 233 232 230 230
103 91 89 80 6 7 24 360 37 95 256 262 284 312 135 211 264 254 244 253 234 210 238 288 305 321 326 329 337 339 334 322 322 334 346 10 36 41 45 53 55 56 57 58 59 57 56 44 256 247 247 246 246 246 246 247 246 246 247 248 249 250 250 249 249 251 251 251 252 253 252 252 251 251 250 249 249 249 249 250 251 251 252 253 254 255 256 254 248 243 238 237 237 237 236 233 232
73 99 103 94 14 9 1 319 345 205 242 276 312 311 188 231 251 260 270 269 242 219 219 230 266 295 308 316 328 333 329 321 329 348 356 7 18 18 30 43 51 59 60 58 61 57 51 36 330 288 268 257 251 250 249 249 249 250 251 251 253 254 254 253 254 256 256 256 257 257 256 255 255 254 253 253 254 255 254 253 252 251 251 252 252 252 251 253 254 253 249 246 244 242 241 238 237
122 135 128 127 121 89 257 268 288 255 258 302 307 300 262 268 268 249 250 254 236 230 234 224 237 266 287 300 314 316 313 320 332 349 0 4 2 6 21 34 40 49 53 54 56 53 50 37 354 321 294 268 257 256 254 253 254 255 256 255 256 256 256 256 257 258 259 259 259 260 260 260 259 259 259 260 262 262 260 258 256 253 251 251 251 251 251 253 256 256 255 253 251 249 247 243 241
154 155 127 143 156 147 199 217 205 233 271 309 306 294 191 210 264 231 232 261 272 261 260 247 247 264 283 296 306 308 314 335 351 3 6 1 9 17 24 29 33 37 40 41 41 38 35 26 8 354 340 311 288 278 269 266 267 265 262 260 260 259 259 260 260 261 261 261 262 262 263 263 263 264 265 266 267 265 263 262 260 257 255 253 252 252 253 255 256 256 256 256 256 255 252 249 249
215 130 106 157 184 137 138 180 171 171 299 302 281 248 210 214 278 272 270 297 298 288 281 274 280 296 322 331 326 336 347 357 3 14 10 0 17 28 28 29 30 30 33 33 31 30 27 21 11 2 354 343 327 310 296 290 285 279 273 269 267 264 263 262 261 262 262 263 264 264 265 266 266 267 268 268 268 266 265 265 264 263 261 259 257 255 254 255 256 257 259 260 261 261 259 256 255
154 129 166 209 168 114 113 182 59 78 178 266 242 249 288 319 290 303 355 319 303 319 322 323 296 309 3 35 28 24 16 8 358 356 351 352 15 27 29 30 27 25 25 23 22 21 18 14 8 1 355 347 339 326 315 307 298 291 286 280 275 270 267 265 265 266 267 267 267 266 267 268 268 268 269 269 269 268 267 266 266 266 266 265 263 262 260 258 257 257 258 259 259 259 259 259 259
121 175 203 186 118 95 106 147 12 40 232 276 291 233 287 334 261 321 4 295 266 283 299 317 317 7 57 71 49 23 351 348 347 346 347 358 19 25 28 28 25 20 14 8 7 5 4 2 356 353 349 343 338 331 324 318 309 304 299 293 286 279 275 273 273 273 272 269 268 267 268 269 269 270 271 271 270 269 269 268 268 268 268 267 267 266 265 263 261 260 260 260 260 261 261 262 263
116 178 171 114 131 142 88 135 152 121 225 282 306 268 262 202 222 300 305 222 224 235 268 307 103 112 100 132 121 76 21 16 16 14 6 9 22 24 23 21 17 14 7 357 351 347 350 349 344 342 339 336 335 332 329 326 319 313 307 301 295 288 282 279 277 277 274 270 270 270 271 272 272 272 272 271 271 270 270 270 270 270 270 269 268 267 267 266 264 263 263 263 264 264 263 263 264
42 93 105 79 126 159 156 145 162 178 193 258 308 323 266 227 217 223 229 223 199 196 220 223 173 167 177 166 148 138 96 62 36 23 9 0 11 18 19 17 15 14 9 1 349 342 342 341 338 335 331 333 336 335 333 330 325 319 312 307 303 297 291 285 283 280 276 274 274 274 274 275 275 274 272 272 272 272 272 272 272 272 271 270 269 268 267 266 265 265 264 265 266 267 264 262 266
88 106 153 166 69 112 156 90 118 141 159 187 261 301 269 249 208 197 221 224 202 186 174 180 183 176 184 180 167 169 129 65 23 3 338 332 354 7 13 15 16 18 17 16 7 355 347 342 339 335 331 333 337 336 334 330 326 322 316 312 308 303 298 291 287 284 281 280 279 277 277 277 276 275 273 272 273 274 275 275 274 274 273 272 270 270 269 266 265 265 264 264 265 265 262 260 265
157 165 180 176 145 121 149 253 230 124 144 170 171 259 271 259 205 209 232 226 225 214 164 163 179 172 173 186 196 195 154 17 337 314 294 321 353 2 6 9 14 16 17 20 17 8 0 355 352 346 338 339 340 337 334 330 327 324 320 318 315 310 305 299 293 289 286 286 285 283 282 280 278 277 276 274 275 276 277 276 275 274 274 273 272 270 269 267 265 265 263 262 262 262 262 261 264
Height
794 794 794 795 796 796 799 801 816 828 829 841 846 842 835 833 835 833 833 832 831 828 827 828 828 828 829 830 831 832 834 836 839 846 847 839 837 839 841 842 844 845 846 847 848 849 851 852 852 852 854 855 856 857 857 856 856 855 854 854 855 855 856 856 856 857 857 858 858 858 858 858 858 858 859 859 859 859 859 859 860 860 860 860 860 861 861 861 860 860 860 860 861 860 861 861 862
794 794 794 796 796 797 805 807 823 836 834 845 847 841 836 834 835 830 830 831 828 827 828 829 828 828 829 829 829 831 834 835 835 837 837 836 838 840 842 843 845 846 847 848 848 849 851 852 852 852 854 855 857 857 857 857 856 855 855 855 855 856 856 857 857 857 858 859 859 859 859 859 859 859 859 860 860 860 860 860 861 861 861 861 861 862 862 862 862 862 862 862 862 862 862 863 863
794 795 795 796 797 798 807 810 826 841 840 845 841 837 837 833 830 827 828 828 827 829 830 829 827 828 829 829 830 832 834 835 835 835 836 837 838 839 842 844 845 847 848 849 850 851 851 853 853 854 855 857 858 858 858 857 856 856 855 856 856 856 857 857 858 858 859 860 860 860 860 860 860 860 860 860 861 861 861 861 861 862 863 863 863 863 863 863 863 863 863 863 864 864 864 864 865
794 795 795 795 801 803 811 819 830 837 839 846 838 832 832 828 825 826 828 828 830 831 829 828 827 829 829 829 832 834 834 835 834 834 836 836 837 839 841 843 845 847 849 850 851 852 853 854 855 856 858 858 858 858 858 857 857 856 856 856 857 857 858 858 859 859 860 861 861 860 861 861 861 861 861 862 862 862 862 862 862 863 864 864 864 865 865 865 865 865 865 865 865 866 866 866 867
794 796 796 795 804 809 817 831 839 836 833 840 834 828 828 825 824 827 829 829 831 831 829 827 827 830 829 831 834 834 834 834 834 833 835 836 837 839 841 843 845 847 849 850 851 853 854 855 856 857 858 858 858 858 857 857 857 857 857 857 857 858 858 859 859 860 861 861 862 862 862 862 862 862 862 863 863 862 863 863 864 864 865 865 866 866 866 866 866 866 866 867 867 867 867 868 868
795 796 796 796 805 810 819 833 837 832 827 830 825 823 825 824 826 827 829 829 829 830 829 826 825 828 830 833 833 833 833 833 833 833 834 835 837 839 841 843 845 847 848 850 852 853 854 855 856 857 858 858 858 858 858 858 858 858 858 858 858 858 859 860 860 861 862 862 862 862 863 863 863 863 863 864 863 863 864 864 865 866 866 867 867 867 867 868 868 868 868 868 869 869 869 870 870
794 796 800 802 810 813 821 829 829 828 827 831 824 819 822 824 828 828 830 830 829 829 828 827 824 825 831 834 833 833 832 832 832 833 834 835 837 839 841 843 844 846 848 850 851 853 854 855 856 856 857 857 857 857 858 858 858 858 858 859 859 859 859 860 861 862 862 863 863 863 864 864 864 864 864 865 864 864 865 866 866 867 867 868 868 869 869 869 869 869 869 870 870 870 871 871 871
793 799 805 808 817 823 830 832 830 830 830 833 828 823 823 823 828 829 830 830 828 828 827 827 825 825 832 835 834 833 831 832 832 833 834 835 837 838 840 842 844 846 847 849 851 852 853 854 855 856 856 857 858 857 858 858 858 859 859 859 859 860 860 861 862 863 863 864 864 865 865 865 865 866 866 865 865 865 866 867 867 868 869 869 870 870 870 871 871 871 871 871 872 872 872 872 873
793 800 808 812 822 830 834 835 833 833 831 831 828 826 825 825 829 829 829 829 828 827 827 827 824 826 832 834 834 833 831 832 832 833 835 836 837 838 840 842 844 845 847 848 850 851 852 854 855 855 856 857 857 857 858 858 859 859 859 860 860 860 861 862 862 863 864 865 865 866 866 866 867 867 867 867 866 867 867 868 869 869 870 870 871 871 872 872 872 872 873 873 873 873 874 874 874
797 803 810 817 826 832 835 836 833 832 830 829 827 825 826 827 829 830 829 827 828 827 827 828 825 827 832 834 835 833 831 832 832 834 835 836 838 839 841 842 844 845 846 848 849 851 852 853 854 855 856 856 857 857 858 858 859 859 860 860 860 861 861 862 863 864 864 865 866 866 867 867 867 868 868 868 868 868 868 869 870 871 871 871 872 872 873 873 873 873 874 874 874 875 875 875 876
803 807 811 820 828 831 832 832 830 829 828 828 826 825 827 828 828 829 829 828 829 827 827 828 827 830 833 835 836 832 832 832 832 834 835 837 838 839 841 842 844 845 846 848 849 850 852 853 854 855 855 856 857 857 858 859 859 859 860 860 861 861 862 862 863 864 865 866 867 867 868 868 868 869 869 869 869 869 869 870 871 872 872 872 873 873 874 874 874 874 875 875 876 876 876 877 877
806 813 813 821 829 830 832 832 830 829 827 826 822 823 827 828 827 827 827 827 827 827 826 826 825 828 834 837 834 831 832 832 833 834 835 837 839 840 841 843 844 846 847 848 849 850 851 852 853 854 855 856 857 857 858 859 859 860 860 861 861 862 862 863 863 864 865 866 867 868 868 869 869 869 870 870 870 870 870 871 872 873 873 873 874 874 875 875 875 875 876 876 876 877 877 877 878
806 816 813 822 837 837 836 835 834 833 828 825 822 825 827 826 826 825 826 826 826 827 825 825 825 825 832 836 832 831 832 832 833 834 836 837 839 840 842 843 844 846 847 848 849 850 851 852 853 854 855 856 857 857 858 859 859 860 861 861 862 862 863 863 864 865 866 866 868 868 869 869 870 870 870 870 870 870 871 872 873 874 874 874 874 875 875 876 876 876 876 877 877 877 878 878 879
805 813 812 827 846 842 837 836 835 835 828 823 823 826 828 825 826 826 826 826 826 826 823 824 825 824 831 835 832 831 830 831 833 834 836 838 839 841 842 843 845 846 847 848 849 850 851 852 853 854 855 856 857 857 858 859 860 860 861 862 863 863 864 864 865 866 866 867 868 869 869 870 870 870 871 871 871 871 872 873 873 874 874 874 875 875 876 876 877 877 877 877 878 878 878 879 879
804 812 815 829 842 839 837 838 836 835 827 822 824 825 826 825 826 827 826 825 825 825 824 825 824 824 828 830 829 829 828 830 833 834 837 838 840 841 842 844 845 846 847 848 849 850 851 852 853 854 855 856 856 857 858 859 860 861 862 862 863 864 865 865 866 866 867 868 868 869 870 870 871 871 871 871 871 871 872 873 874 875 875 875 875 876 877 877 877 877 877 878 878 879 879 880 880
804 809 817 827 836 835 835 839 840 838 826 821 826 826 824 825 827 826 825 825 824 825 826 825 824 825 825 826 826 826 827 830 832 835 837 839 840 841 842 843 844 846 847 848 849 850 851 851 852 853 855 855 856 857 858 859 860 861 862 863 864 865 865 866 866 867 868 868 869 869 870 871 871 872 872 872 872 872 873 874 875 875 875 875 875 876 877 877 878 878 878 879 879 880 880 881 881
803 807 818 826 834 833 831 836 835 830 822 821 826 825 823 825 826 825 825 825 824 826 827 826 826 826 824 824 825 825 827 829 832 835 837 838 840 841 842 843 844 845 846 847 848 849 850 851 852 853 854 855 856 857 858 859 860 861 863 863 864 865 866 866 867 867 868 869 869 870 870 871 872 872 872 872 873 873 873 874 875 875 875 875 876 876 877 878 878 878 879 880 880 880 881 881 882
804 814 822 825 832 828 822 825 825 821 818 820 823 823 822 823 825 824 824 825 826 828 827 826 826 825 825 824 825 826 827 829 832 834 836 838 839 840 841 842 843 844 845 846 848 849 850 851 852 853 854 855 856 857 858 859 860 861 863 864 864 865 866 866 867 868 868 869 869 870 871 871 872 872 873 873 873 873 874 875 875 875 875 876 876 877 878 878 879 879 880 880 881 881 882 882 883
809 820 823 822 825 821 816 817 819 819 816 818 822 824 823 821 823 823 824 827 828 828 827 827 827 824 824 825 825 826 827 829 831 833 835 836 837 838 840 841 842 843 844 845 846 848 849 850 851 853 853 855 856 857 858 859 860 861 862 863 864 865 866 866 867 868 868 869 870 870 871 871 872 872 873 873 874 874 874 875 875 875 875 876 877 877 878 879 879 880 880 881 882 882 883 883 884
812 818 819 817 816 816 817 817 817 818 817 818 821 825 824 822 823 823 824 828 829 828 826 826 826 823 823 825 825 825 827 829 830 832 834 835 836 837 838 839 840 841 842 844 846 847 848 850 851 852 853 854 855 856 858 859 860 861 862 863 864 865 865 866 867 868 868 869 870 870 871 871 871 872 873 873 874 874 874 875 876 875 876 876 877 877 878 879 880 880 881 882 882 883 883 884 884
812 815 814 815 817 816 816 817 818 820 820 819 820 825 824 822 823 823 824 828 829 826 822 821 820 819 822 825 825 825 827 828 831 832 833 834 835 836 837 837 838 840 842 844 845 846 847 848 850 851 852 854 855 856 857 858 859 860 861 862 863 864 865 866 867 867 868 869 869 870 870 871 871 872 872 873 873 874 874 875 876 876 876 876 877 878 878 879 880 881 881 882 883 883 884 884 885
811 815 815 817 820 815 815 819 820 821 822 820 822 823 821 822 823 823 824 825 823 819 817 817 816 817 819 822 824 825 827 828 830 831 832 833 834 835 836 837 839 840 842 843 843 845 846 847 849 850 851 853 854 855 856 858 859 860 861 861 862 864 865 865 866 867 868 868 869 870 870 871 871 872 872 872 873 873 874 875 875 876 876 876 877 878 879 880 880 881 882 882 883 883 884 884 885
810 815 818 819 820 816 818 821 821 822 819 818 821 820 821 822 822 825 824 818 816 815 816 817 817 819 819 820 823 824 825 826 827 828 829 830 831 832 833 835 837 838 840 841 842 843 845 846 848 849 851 852 853 854 856 857 858 859 860 861 861 862 864 865 865 866 867 868 869 869 870 870 871 872 872 872 873 874 874 875 876 876 876 877 877 878 879 880 880 881 882 882 883 883 884 884 885
809 813 816 819 821 818 821 822 821 822 818 818 821 820 822 820 821 828 824 814 814 816 817 817 816 819 820 821 822 822 822 823 824 824 826 827 828 830 832 834 836 837 839 839 841 842 843 845 846 848 849 851 852 854 855 856 857 858 859 860 860 861 862 863 864 865 866 867 868 869 870 870 871 872 872 873 873 874 875 875 876 877 877 877 877 878 879 879 880 881 881 882 882 883 884 884 885
809 811 815 818 820 820 823 823 821 821 820 822 822 820 823 824 825 827 819 812 815 817 817 817 817 819 821 821 821 821 822 822 823 824 826 827 829 832 833 834 836 836 837 837 839 840 841 843 845 847 848 849 851 853 854 855 856 857 858 859 859 860 861 862 863 865 865 866 867 868 869 870 871 871 872 873 873 874 875 876 876 877 877 877 878 878 879 879 879 880 881 882 882 883 884 884 885
810 812 815 816 819 820 821 820 820 820 821 822 820 821 825 827 828 821 813 814 817 818 817 818 819 819 820 821 821 821 821 822 822 823 825 827 830 831 832 832 834 834 834 836 837 838 840 842 844 845 846 848 850 851 853 853 854 855 856 857 858 859 859 861 862 863 864 865 866 867 868 869 870 871 872 873 873 874 875 876 876 877 877 878 878 878 879 879 880 880 881 881 882 882 883 884 884
811 814 817 817 820 821 820 818 820 821 821 821 819 822 824 826 827 818 812 817 819 817 816 818 819 819 820 820 821 821 821 820 820 823 825 827 828 828 829 830 830 831 832 834 834 836 839 840 841 843 845 847 848 850 851 852 853 853 854 856 857 857 858 859 860 862 863 864 865 866 867 868 869 870 871 872 873 874 874 875 876 877 877 878 878 879 879 880 880 881 881 881 882 882 883 884 884
813 813 815 820 820 820 821 819 821 821 820 823 820 821 824 825 824 816 814 819 819 816 816 819 820 820 821 821 822 822 821 820 822 824 824 824 823 823 825 826 826 828 830 830 832 835 837 838 840 842 843 845 846 848 849 850 851 852 853 854 855 856 857 858 859 860 861 862 864 865 866 867 868 869 870 871 872 873 874 874 875 876 876 877 878 879 879 880 880 881 882 882 882 883 883 883 884
814 813 815 822 820 819 822 822 824 821 820 824 823 823 824 823 819 813 816 820 818 817 816 819 820 821 822 822 823 822 821 822 823 822 820 820 820 821 822 822 824 826 827 829 832 834 834 836 838 840 842 843 844 845 847 848 849 851 852 853 854 855 856 857 857 858 860 861 863 864 865 866 867 868 869 870 871 872 873 873 874 875 876 877 877 878 879 879 880 880 881 882 882 883 883 883 884
815 816 818 823 824 823 825 826 826 822 822 825 825 827 822 816 815 813 818 820 817 817 815 817 819 821 822 823 823 822 821 822 821 818 817 818 819 821 820 821 824 824 826 829 830 831 833 835 837 838 840 841 842 844 845 846 848 850 850 852 853 854 855 855 856 857 858 860 862 863 864 865 866 867 868 869 870 871 872 872 873 874 875 876 876 877 878 879 879 880 881 881 882 883 883 884 884
818 820 824 832 831 826 827 829 827 822 825 825 823 829 821 812 814 815 819 820 817 815 814 815 817 819 821 822 823 822 820 819 818 817 817 817 818 819 819 820 822 823 824 826 827 829 831 833 834 836 838 839 840 842 843 845 846 848 849 850 851 852 853 854 855 856 857 858 860 862 863 864 865 866 867 868 869 870 870 871 872 873 874 875 876 876 877 878 879 880 880 881 882 882 883 883 883
825 824 829 841 836 827 828 832 830 825 826 826 825 829 822 813 814 817 821 820 817 815 813 815 815 816 819 820 821 820 819 817 816 816 815 815 816 816 817 818 820 821 822 823 825 827 828 830 832 833 835 837 838 839 841 843 845 846 847 849 850 851 852 852 853 854 855 856 857 859 861 862 863 864 866 867 868 869 869 870 871 872 873 874 874 875 876 877 878 879 880 880 881 881 882 882 883
830 828 828 838 835 829 830 831 833 830 827 827 826 828 822 815 813 816 821 820 818 816 814 814 814 814 815 816 818 818 817 816 815 813 811 812 813 813 814 815 816 818 820 821 823 824 825 827 829 830 832 833 835 837 839 841 843 844 845 847 848 849 850 850 851 853 854 854 855 856 858 859 861 862 863 865 865 866 868 869 870 871 872 872 873 874 874 875 876 877 878 879 879 880 880 881 881
833 834 831 838 838 833 830 829 834 833 829 828 829 829 821 813 813 814 818 820 818 816 812 812 812 811 812 813 814 814 814 813 811 808 807 808 808 809 810 812 814 815 817 819 820 821 822 824 826 827 829 831 833 835 837 839 841 842 843 844 846 847 848 848 849 850 851 853 853 854 855 856 858 859 861 863 863 864 865 867 868 869 870 870 871 872 872 873 874 875 876 877 878 878 878 879 880
827 830 828 834 838 838 834 830 833 834 829 829 831 831 822 814 813 811 815 820 817 814 813 812 811 810 809 810 811 810 811 809 805 803 803 805 805 806 808 809 811 812 814 816 817 818 820 821 823 824 826 828 830 832 834 836 838 840 841 842 842 843 845 846 848 848 849 850 851 851 853 854 854 856 858 859 861 863 864 864 866 867 868 868 868 869 870 871 872 873 874 874 875 875 876 877 878
818 825 824 824 828 833 835 831 835 837 831 830 830 829 824 816 814 810 810 818 817 814 814 812 810 809 807 807 807 808 808 803 799 800 801 803 803 804 805 806 808 809 811 813 814 815 816 818 820 821 822 824 827 830 832 834 836 837 838 839 839 839 841 843 844 846 848 848 849 850 851 852 853 854 855 856 858 860 861 862 864 864 864 865 865 865 865 866 867 868 869 870 870 871 872 874 875
820 826 827 828 827 826 832 833 837 838 831 830 834 832 827 821 815 811 810 816 816 811 809 806 805 805 805 805 804 804 804 799 798 799 800 800 801 802 803 804 805 807 808 809 810 811 812 814 815 816 818 821 824 826 828 830 831 832 834 835 835 837 838 840 841 842 844 846 847 848 848 849 850 851 853 854 855 856 858 859 860 861 861 862 862 862 863 863 864 865 866 867 868 868 868 870 872
823 826 826 831 832 827 832 835 835 839 831 831 840 834 825 819 814 810 810 812 809 805 804 802 801 802 803 803 802 801 800 798 798 798 798 799 800 800 801 802 802 803 803 804 805 806 808 810 812 813 815 818 819 821 824 825 826 828 829 830 831 834 835 837 838 839 841 843 844 846 846 846 846 847 849 851 852 852 854 855 856 857 858 859 860 860 861 862 863 863 863 864 867 868 866 866 868
825 830 827 828 834 832 834 835 835 838 831 829 838 832 820 816 813 809 810 810 805 805 806 803 803 801 801 801 799 800 799 797 796 796 797 797 798 799 799 799 799 800 800 802 803 804 806 808 809 810 812 814 815 818 820 820 822 824 826 828 829 832 833 834 836 838 840 841 841 843 844 844 845 845 846 847 849 850 851 853 854 855 855 856 857 858 858 859 860 861 862 862 864 866 867 865 865
827 829 825 828 837 834 829 831 835 839 837 835 835 829 819 814 811 805 808 813 809 808 809 807 807 803 799 800 800 800 798 795 795 795 795 796 796 797 797 797 797 798 798 799 801 802 804 804 805 807 809 810 813 815 816 818 820 823 825 827 829 830 831 833 834 835 837 838 839 840 841 842 843 843 843 843 845 846 847 849 850 851 852 853 855 855 855 856 857 858 860 861 861 862 864 864 863
830 829 823 825 832 832 832 833 835 837 841 840 832 824 816 811 809 802 805 814 809 806 807 801 802 804 803 801 800 800 799 797 797 794 794 795 794 794 794 795 795 796 797 797 799 800 801 802 804 806 808 809 811 813 815 818 820 822 825 827 828 829 830 831 832 832 833 834 835 836 837 839 840 841 841 841 841 843 844 845 846 846 847 849 851 851 851 852 853 854 854 855 856 856 858 859 859
828 825 821 821 821 826 834 835 833 833 835 841 839 828 817 811 807 801 804 808 800 801 803 794 794 799 801 800 797 798 799 798 798 796 795 795 793 793 792 793 794 794 795 796 797 799 800 802 803 805 807 808 810 812 814 817 819 821 823 824 825 826 826 826 827 827 829 830 830 832 834 836 837 838 839 840 840 840 841 842 842 843 844 846 846 847 847 848 849 850 850 850 850 851 853 855 854
824 825 826 827 823 824 830 830 832 834 835 846 850 836 826 817 803 800 810 809 798 796 796 792 794 795 797 798 797 798 798 797 797 796 796 796 793 793 791 791 793 792 793 795 796 797 798 800 802 803 805 807 809 811 813 815 817 819 820 821 822 822 822 822 823 824 825 826 827 829 831 832 834 835 836 838 838 838 838 838 838 839 840 842 843 844 844 845 846 846 846 846 846 848 850 851 850
822 830 832 828 823 824 829 828 831 837 839 846 847 838 835 828 810 809 817 808 795 792 792 793 795 795 796 799 798 798 798 797 797 796 795 795 794 793 792 791 792 791 792 793 794 796 797 799 800 802 804 806 808 810 812 813 815 816 817 818 819 819 819 819 820 822 823 824 825 826 827 828 830 832 833 834 835 836 837 837 836 836 836 837 839 841 841 842 843 844 844 845 845 846 846 846 846
826 839 838 832 830 830 832 831 833 844 843 838 841 841 839 830 814 816 821 808 796 794 794 796 796 797 798 798 798 798 798 798 797 796 795 795 794 793 792 791 791 792 792 793 794 795 796 798 800 802 803 805 807 808 810 812 813 814 815 816 816 816 817 818 819 820 821 822 822 823 824 826 826 828 829 830 832 833 834 835 835 835 834 834 836 837 838 839 840 841 841 842 842 841 840 841 842
833 844 839 837 840 839 838 836 834 843 843 836 842 847 840 827 810 811 817 808 800 798 798 799 798 799 800 799 798 797 798 798 798 798 796 794 794 793 792 793 792 793 793 793 794 795 796 798 800 801 803 805 806 808 809 810 812 812 813 813 813 814 815 816 817 817 819 820 820 821 822 823 823 824 825 827 828 830 831 832 833 833 833 833 833 833 835 836 836 836 836 836 836 835 835 836 838
834 835 829 831 836 837 840 843 840 842 843 842 854 857 846 832 813 805 809 807 804 801 798 799 797 797 798 798 800 799 799 799 798 798 797 795 795 794 794 794 794 794 794 795 795 796 797 798 800 801 803 804 805 807 808 809 810 810 811 811 811 812 813 814 815 815 817 818 818 818 819 820 820 821 822 824 825 827 828 829 830 830 831 831 831 831 832 832 831 831 831 832 832 832 833 833 835
831 823 824 830 836 839 841 844 843 843 843 848 864 865 852 840 816 802 805 805 807 805 799 798 797 796 797 797 799 800 800 801 799 798 797 796 796 795 796 795 795 796 795 796 797 797 798 798 800 801 801 803 804 805 806 807 808 809 809 809 809 810 811 812 813 813 814 815 815 816 816 817 818 818 820 820 822 823 824 825 826 827 827 828 828 828 828 828 828 828 829 829 830 830 830 831 832
827 823 827 834 845 850 846 849 853 849 847 855 866 862 850 839 815 802 802 798 801 806 802 800 799 798 797 797 799 800 801 800 798 798 797 797 797 796 796 796 797 797 797 798 798 798 799 799 800 801 801 802 803 803 804 805 806 806 806 807 807 808 810 810 811 811 812 812 812 813 813 814 815 815 816 817 818 819 820 821 821 822 823 824 824 824 824 825 826 826 826 826 826 827 827 828 828
825 823 826 832 846 854 852 861 866 854 850 860 868 858 843 832 813 802 800 796 801 805 805 805 805 803 801 800 802 802 801 800 799 798 797 797 797 796 796 797 797 798 798 798 799 799 800 800 801 801 802 802 803 803 803 803 803 804 804 805 805 807 807 808 808 808 808 809 809 810 810 811 811 812 812 813 814 815 816 816 817 818 819 820 821 821 822 822 823 823 823 823 822 822 823 823 823
827 828 827 827 832 837 842 849 846 842 850 862 864 849 829 817 806 801 800 801 807 807 808 811 808 808 807 804 804 802 800 799 798 798 798 797 798 797 797 797 797 798 798 798 799 799 800 800 800 801 801 802 802 802 802 802 802 803 803 803 804 804 805 805 805 805 805 806 807 807 807 808 808 808 809 810 811 812 812 813 813 814 815 816 817 818 819 819 820 820 819 819 819 819 819 819 819
833 836 829 825 822 825 845 862 855 851 854 855 854 841 824 812 801 801 805 803 804 804 805 806 803 805 807 802 801 800 798 799 798 798 799 799 798 798 798 798 798 799 799 799 800 800 800 800 800 800 801 801 801 801 801 801 801 801 801 802 802 802 802 802 801 802 802 803 804 804 804 805 805 806 806 807 808 808 809 809 810 810 811 812 813 814 815 816 817 817 816 816 816 816 816 816 816
829 832 826 829 831 826 843 868 875 868 851 842 846 835 821 816 801 794 800 798 796 798 798 799 799 802 803 799 798 799 798 799 800 800 801 801 800 799 799 800 800 800 800 801 801 801 801 801 801 801 801 801 801 800 800 800 800 800 800 800 800 800 800 799 799 800 801 801 801 801 801 802 802 803 804 804 804 805 805 806 806 806 807 808 809 810 810 811 812 812 812 812 812 813 813 813 813
822 824 822 829 836 830 830 844 860 867 852 841 846 837 824 822 808 792 795 795 792 793 794 797 799 799 799 798 798 799 800 801 802 802 803 803 801 801 801 802 802 802 802 802 802 802 802 802 801 801 800 800 800 800 800 800 800 799 799 798 798 798 798 798 798 798 799 798 798 798 798 799 799 800 800 801 801 802 802 802 803 803 804 804 805 806 806 807 808 808 807 807 808 809 809 808 809
819 819 821 823 826 829 833 837 842 851 851 841 844 850 840 827 811 793 790 793 792 793 795 795 796 798 799 799 799 800 801 802 802 803 804 803 802 802 803 803 803 803 803 803 803 803 802 802 802 801 800 800 800 800 800 799 799 798 798 797 796 796 796 796 796 796 796 795 795 795 795 795 796 797 797 797 798 798 798 799 799 799 800 800 801 802 803 803 804 803 803 803 803 805 805 804 804
823 822 824 823 823 826 831 836 835 835 845 844 839 842 831 816 810 795 786 793 794 793 795 794 796 798 799 799 799 800 801 801 802 803 804 803 802 803 804 804 804 804 804 803 803 802 802 802 801 800 800 799 799 799 799 798 798 797 796 796 795 794 793 793 793 793 793 792 792 792 792 793 793 794 794 795 795 795 795 796 796 796 796 797 797 798 799 800 800 799 799 799 800 801 801 800 800
822 821 824 825 829 833 830 836 840 832 835 843 838 831 814 803 807 798 788 794 794 790 792 795 798 798 798 799 798 799 801 801 803 804 804 804 802 803 804 804 805 805 804 804 803 802 802 801 801 800 799 799 798 797 797 796 796 795 794 794 793 793 792 791 791 791 790 790 790 790 790 791 791 790 791 791 791 791 791 792 792 793 793 793 794 795 795 796 796 795 795 795 796 797 797 796 796
813 813 817 818 821 829 827 832 843 839 834 838 838 832 812 799 805 801 793 795 796 795 796 796 798 798 797 799 799 800 802 802 804 805 804 804 802 803 804 804 804 804 804 804 803 803 802 801 801 800 799 799 797 796 795 795 794 793 792 791 790 790 790 790 790 789 789 789 788 789 789 789 788 788 789 789 788 788 788 788 788 789 790 790 790 791 791 792 792 791 791 792 792 793 792 792 792